| time (UTC) | temp F | wind direction | speed MPH | gust MPH | rain 1hr in | rain 24hr in | rain mn in | humidity % | barometer mb |
| 20260504223059 | 37 | 9 | 18.0 | 24.0 | 0.00 | 0.00 | 0.00 | 62 | 1014.0 |
| 20260504221606 | 38 | 4 | 19.0 | 28.0 | 0.00 | 0.00 | 0.00 | 61 | 1014.0 |
| 20260504220101 | 38 | 4 | 18.0 | 27.0 | 0.00 | 0.00 | 0.00 | 61 | 1013.8 |
| 20260504214603 | 38 | 359 | 17.0 | 24.0 | 0.00 | 0.00 | 0.00 | 63 | 1013.9 |
| 20260504213105 | 38 | 9 | 17.0 | 25.0 | 0.00 | 0.00 | 0.00 | 63 | 1013.8 |
| 20260504211605 | 38 | 29 | 18.0 | 25.0 | 0.00 | 0.00 | 0.00 | 61 | 1013.7 |
| 20260504210105 | 38 | 15 | 16.0 | 28.0 | 0.00 | 0.00 | 0.00 | 61 | 1013.7 |
| 20260504204638 | 39 | 4 | 18.0 | 25.0 | 0.00 | 0.00 | 0.00 | 59 | 1013.5 |
| 20260504203059 | 39 | 18 | 16.0 | 25.0 | 0.00 | 0.00 | 0.00 | 57 | 1013.4 |
| 20260504201602 | 39 | 16 | 19.0 | 26.0 | 0.00 | 0.00 | 0.00 | 56 | 1013.2 |
| 20260504200103 | 39 | 21 | 17.0 | 28.0 | 0.00 | 0.00 | 0.00 | 58 | 1013.4 |
| 20260504194559 | 40 | 23 | 18.0 | 27.0 | 0.00 | 0.00 | 0.00 | 57 | 1013.3 |
| 20260504193059 | 39 | 354 | 18.0 | 27.0 | 0.00 | 0.00 | 0.00 | 59 | 1013.1 |
| 20260504191557 | 39 | 4 | 14.0 | 23.0 | 0.00 | 0.00 | 0.00 | 60 | 1013.1 |
| 20260504184606 | 39 | 349 | 20.0 | 27.0 | 0.00 | 0.00 | 0.00 | 61 | 1013.1 |
| 20260504183101 | 38 | 354 | 19.0 | 27.0 | 0.00 | 0.00 | 0.00 | 61 | 1013.1 |
| 20260504181600 | 39 | 343 | 18.0 | 24.0 | 0.00 | 0.00 | 0.00 | 60 | 1013.1 |
| 20260504180100 | 38 | 354 | 18.0 | 25.0 | 0.00 | 0.00 | 0.00 | 59 | 1013.1 |
| 20260504174601 | 38 | 25 | 17.0 | 25.0 | 0.00 | 0.00 | 0.00 | 58 | 1013.0 |
| 20260504173101 | 38 | 354 | 16.0 | 25.0 | 0.00 | 0.00 | 0.00 | 59 | 1013.0 |
| 20260504171559 | 38 | 4 | 18.0 | 25.0 | 0.00 | 0.00 | 0.00 | 60 | 1013.0 |
| 20260504150105 | 37 | 18 | 15.0 | 22.0 | 0.00 | 0.00 | 0.00 | 57 | 1012.5 |
| 20260504081608 | 37 | 354 | 13.0 | 20.0 | 0.00 | 0.00 | 0.00 | 71 | 1009.7 |
| 20260504070105 | 35 | 4 | 8.0 | 12.0 | 0.00 | 0.00 | 0.00 | 75 | 1009.9 |
| 20260504044605 | 40 | 10 | 12.0 | 18.0 | 0.00 | 0.00 | 0.00 | 71 | 1008.6 |
| 20260504043100 | 40 | 4 | 12.0 | 17.0 | 0.00 | 0.00 | 0.00 | 73 | 1008.5 |
| 20260504041558 | 40 | 13 | 10.0 | 14.0 | 0.00 | 0.00 | 0.00 | 72 | 1008.3 |
| 20260504034614 | 42 | 16 | 8.0 | 13.0 | 0.00 | 0.00 | 0.00 | 69 | 1008.2 |
| 20260504033058 | 43 | 41 | 11.0 | 17.0 | 0.00 | 0.00 | 0.00 | 67 | 1008.2 |
| 20260504031600 | 45 | 33 | 15.0 | 21.0 | 0.00 | 0.00 | 0.00 | 63 | 1008.1 |
| 20260504030058 | 46 | 13 | 18.0 | 27.0 | 0.00 | 0.00 | 0.00 | 61 | 1007.8 |
| 20260504024559 | 47 | 359 | 21.0 | 30.0 | 0.00 | 0.00 | 0.00 | 56 | 1007.6 |
| 20260504023058 | 49 | 35 | 16.0 | 31.0 | 0.00 | 0.00 | 0.00 | 56 | 1007.3 |
| 20260504021559 | 51 | 32 | 15.0 | 23.0 | 0.00 | 0.00 | 0.00 | 46 | 1006.6 |
| 20260504020059 | 53 | 43 | 19.0 | 32.0 | 0.00 | 0.00 | 0.00 | 42 | 1006.0 |
| 20260504014618 | 54 | 10 | 18.0 | 29.0 | 0.00 | 0.00 | 0.00 | 35 | 1005.4 |
| 20260504013104 | 55 | 359 | 18.0 | 30.0 | 0.00 | 0.00 | 0.00 | 34 | 1005.4 |
| 20260504011605 | 55 | 331 | 27.0 | 36.0 | 0.00 | 0.00 | 0.00 | 34 | 1005.3 |
| 20260504004601 | 57 | 18 | 20.0 | 44.0 | 0.00 | 0.00 | 0.00 | 36 | 1005.0 |
| 20260504003100 | 57 | 351 | 22.0 | 36.0 | 0.00 | 0.00 | 0.00 | 33 | 1005.0 |
| 20260504001616 | 57 | 4 | 23.0 | 33.0 | 0.00 | 0.00 | 0.00 | 33 | 1004.9 |
| 20260503234600 | 57 | 12 | 25.0 | 36.0 | 0.00 | 0.00 | 0.00 | 35 | 1004.7 |
| 20260503233103 | 57 | 8 | 24.0 | 37.0 | 0.00 | 0.00 | 0.00 | 37 | 1004.6 |
| 20260503231604 | 57 | 8 | 23.0 | 31.0 | 0.00 | 0.00 | 0.00 | 39 | 1004.4 |
| 20260503230108 | 57 | 351 | 21.0 | 29.0 | 0.00 | 0.00 | 0.00 | 38 | 1004.1 |
| 20260503224602 | 57 | 354 | 21.0 | 30.0 | 0.00 | 0.00 | 0.00 | 38 | 1004.0 |